www.pogodaiklimat.ru

Погода и климат >> Архив погоды >> Австралия >> Mandora


ПОГОДА в Mandora

  • Прогноз погоды в Mandora
  • Монитор погоды в Mandora
  • Климат города

АРХИВ ПОГОДЫ в Mandora

Время (UTC), дата Ветер
(напр.,м/с)
 
Видим.   Явления Облачность Т
(С)
Тd
(С)
f
(%)
Тe
(С)
Тes
(С)
Комфортность P
(гПа)
Po
(гПа)
Тmin
(С)
Tmax
(С)
R
(мм)
R24
(мм)
S
(см)
22 12.07 ЮВ 2 н/о н/о +9.8 -0.1 50 +9 +9 1016.5 1015.6
00 13.07 В 2 н/о н/о +17.1 +1.1 34 +17 +17 1017.8 1016.9
01 13.07 В 3 н/о н/о +21.7 -1.6 21 +21 +21 комфорт 1018.2 1017.3 +7.9
03 13.07 В 3 н/о н/о +26.2 -2.4 15 +24 +24 комфорт 1017.4 1016.5
04 13.07 В 3 н/о н/о +27.0 -3.7 13 +24 +24 комфорт 1016.5 1015.6
06 13.07 С 3 н/о н/о +27.9 -1.1 15 +25 +25 комфорт 1014.4 1013.5
07 13.07 С 5 н/о н/о +26.7 -1.2 16 +24 +24 комфорт 1013.8 1012.9
09 13.07 З 3 н/о н/о +23.5 +1.8 24 +23 +23 комфорт 1013.8 1012.9
10 13.07 З 2 н/о н/о +18.0 +5.6 44 +19 +19 1014.0 1013.1
12 13.07 ЮЗ 4 н/о н/о +15.0 +5.2 52 +14 +14 1015.3 1014.4
13 13.07 ЮЗ 3 н/о н/о +14.2 +4.5 52 +13 +13 1015.7 1014.8 +28.8
15 13.07 Ю 3 н/о н/о +13.1 +1.1 44 +12 +12 1016.0 1015.1
16 13.07 Ю 3 н/о н/о +12.8 -0.1 41 +12 +12 1015.8 1014.9
18 13.07 Ю 2 н/о н/о +11.5 -1.6 40 +11 +11 1015.5 1014.6
19 13.07 ЮВ 3 н/о н/о +11.5 -2.3 38 +10 +10 1015.3 1014.4
21 13.07 ЮВ 2 н/о н/о +8.4 -0.1 55 +7 +7 1015.4 1014.5
22 13.07 ЮВ 3 н/о н/о +9.3 -2.3 44 +8 +8 1015.5 1014.6
00 14.07 ЮВ 2 н/о н/о +16.2 -0.5 32 +16 +16 1016.6 1015.7
01 14.07 В 2 н/о н/о +22.8 -0.6 21 +22 +22 комфорт 1016.9 1016.0 +7.3
03 14.07 В 2 н/о н/о +27.6 -5.5 11 +25 +25 комфорт 1016.5 1015.6
04 14.07 В 3 н/о н/о +27.5 -5.6 11 +24 +24 комфорт 1015.3 1014.4
06 14.07 В 3 н/о н/о +28.4 -4.9 11 +25 +25 комфорт 1013.2 1012.3
07 14.07 СВ 3 н/о н/о +27.7 -3.2 13 +25 +25 комфорт 1012.4 1011.5
09 14.07 З 4 н/о н/о +24.4 -3.0 16 +23 +23 комфорт 1012.3 1011.4
10 14.07 З 3 н/о н/о +19.5 -1.0 25 +20 +20 1012.8 1011.9
12 14.07 ЮЗ 4 н/о н/о +14.9 +2.4 43 +14 +14 1013.9 1013.0
13 14.07 ЮЗ 4 н/о н/о +15.1 +0.5 37 +14 +14 1014.4 1013.5 +29.1
15 14.07 ЮЗ 4 н/о н/о +13.6 +1.3 43 +13 +13 1014.7 1013.8
16 14.07 ЮЗ 4 н/о н/о +12.6 +1.6 47 +11 +11 1014.6 1013.7
18 14.07 ЮЗ 3 н/о н/о +11.9 +9.1 83 +10 +10 1014.3 1013.4
19 14.07 ЮЗ 3 н/о н/о +11.4 +9.1 86 +10 +10 1014.1 1013.2
21 14.07 ЮЗ 2 н/о н/о +8.6 +6.7 88 +7 +7 1014.0 1013.1
22 14.07 ЮВ 2 н/о н/о +8.7 +7.0 89 +7 +7 1014.4 1013.5
00 15.07 В 2 н/о н/о +14.8 +7.1 60 +15 +15 1016.0 1015.1
01 15.07 штиль 0 н/о н/о +20.0 +9.9 52 +21 +21 комфорт 1016.3 1015.4 +7.0
03 15.07 ЮВ 3 н/о н/о +27.2 +6.6 27 +27 +27 жарко 1015.4 1014.5
04 15.07 СВ 3 н/о н/о +28.2 +6.3 25 +27 +27 жарко 1014.5 1013.6
06 15.07 С 5 н/о н/о +27.6 +10.8 35 +28 +28 жарко 1013.1 1012.2
07 15.07 С 4 н/о н/о +27.8 +4.2 22 +26 +26 жарко 1012.6 1011.7
09 15.07 СЗ 3 н/о н/о +23.2 +13.1 53 +26 +26 жарко 1012.8 1011.9
10 15.07 З 2 н/о н/о +19.0 +14.1 73 +21 +21 комфорт 1013.3 1012.4
12 15.07 ЮЗ 3 н/о н/о +17.2 +14.8 86 +17 +17 1015.0 1014.1
13 15.07 ЮЗ 3 н/о н/о +16.9 +14.4 85 +17 +17 1015.2 1014.3 +29.5
15 15.07 ЮЗ 2 н/о н/о +13.1 +9.9 81 +12 +12 1015.2 1014.3
16 15.07 Ю 2 н/о н/о +13.5 +9.0 74 +13 +13 1015.0 1014.1
18 15.07 Ю 3 н/о н/о +10.2 +7.1 81 +8 +8 1014.5 1013.6
19 15.07 В 2 н/о н/о +10.0 +6.3 78 +9 +9 1014.5 1013.6
21 15.07 В 2 н/о н/о +8.0 +5.8 86 +6 +6 1014.8 1013.9
22 15.07 В 3 н/о н/о +8.3 +5.8 84 +6 +6 1015.2 1014.3
00 16.07 ЮВ 4 н/о н/о +17.2 +5.2 45 +17 +17 1016.1 1015.2
01 16.07 ЮВ 4 н/о н/о +21.2 +4.3 33 +21 +21 комфорт 1016.5 1015.6 +7.6
03 16.07 В 4 н/о н/о +26.9 +4.0 23 +26 +26 жарко 1015.7 1014.8
04 16.07 В 4 н/о н/о +28.4 +3.3 20 +27 +27 жарко 1014.8 1013.9
06 16.07 В 3 н/о н/о +29.8 -0.5 14 +27 +27 жарко 1012.8 1011.9
07 16.07 В 3 н/о н/о +28.7 -2.4 13 +26 +26 жарко 1012.3 1011.4
09 16.07 штиль 0 н/о н/о +25.9 +3.2 23 +25 +25 комфорт 1012.3 1011.4
10 16.07 З 2 н/о н/о +19.8 +3.1 33 +21 +21 комфорт 1012.9 1012.0
12 16.07 ЮЗ 3 н/о н/о +16.8 +1.3 35 +17 +17 1014.4 1013.5
13 16.07 ЮЗ 3 н/о н/о +15.4 +2.6 42 +15 +15 1015.0 1014.1 +30.0
15 16.07 Ю 4 н/о н/о +16.2 +1.1 36 +16 +16 1014.6 1013.7
16 16.07 Ю 3 н/о н/о +13.7 +2.3 46 +13 +13 1014.6 1013.7
18 16.07 Ю 1 н/о н/о +9.7 +2.6 61 +9 +9 1014.0 1013.1
19 16.07 ЮВ 3 н/о н/о +13.5 +1.5 44 +13 +13 1013.5 1012.6
21 16.07 В 3 н/о н/о +10.4 +4.3 66 +9 +9 1013.7 1012.8
22 16.07 В 3 н/о н/о +10.6 +3.2 60 +9 +9 1014.5 1013.6
00 17.07 ЮВ 3 н/о н/о +16.8 +2.8 39 +17 +17 1015.4 1014.5
01 17.07 ЮВ 4 н/о н/о +21.5 +2.2 28 +21 +21 комфорт 1015.7 1014.8 +9.2
03 17.07 ЮВ 5 н/о н/о +27.7 -0.4 16 +25 +25 комфорт 1014.7 1013.8
04 17.07 В 4 н/о н/о +29.0 -1.2 14 +26 +26 жарко 1014.0 1013.1
06 17.07 В 3 н/о н/о +30.0 +1.5 16 +27 +27 жарко 1012.7 1011.8
07 17.07 В 3 н/о н/о +29.6 +1.1 16 +27 +27 жарко 1012.1 1011.2
09 17.07 В 1 н/о н/о +26.7 +5.6 26 +26 +26 жарко 1012.4 1011.5
10 17.07 З 3 н/о н/о +21.7 +6.4 37 +22 +22 комфорт 1012.6 1011.7
12 17.07 ЮЗ 3 н/о н/о +20.4 +6.4 40 +22 +22 комфорт 1013.8 1012.9
13 17.07 Ю 3 н/о н/о +19.7 +5.7 40 +21 +21 комфорт 1014.0 1013.1 +30.6
15 17.07 Ю 4 н/о н/о +20.4 +4.0 34 +21 +21 комфорт 1013.6 1012.7
16 17.07 Ю 2 н/о н/о +19.1 +3.7 36 +20 +20 1013.3 1012.4
18 17.07 ЮВ 2 н/о н/о +13.6 +4.2 53 +13 +13 1012.7 1011.8
19 17.07 ЮВ 2 н/о н/о +12.7 +6.1 64 +12 +12 1012.7 1011.8
21 17.07 Ю 2 н/о н/о +12.6 +5.1 60 +12 +12 1013.3 1012.4
22 17.07 ЮВ 2 н/о н/о +11.0 +5.7 70 +10 +10 1013.6 1012.7
00 18.07 ЮВ 2 н/о н/о +17.8 +5.4 44 +19 +19 1014.8 1013.9
01 18.07 ЮВ 3 н/о н/о +21.4 +4.0 32 +22 +22 комфорт 1015.3 1014.4 +11.1
03 18.07 В 3 н/о н/о +27.5 +3.2 21 +26 +26 жарко 1014.6 1013.7
04 18.07 В 4 н/о н/о +28.9 +6.3 24 +28 +28 жарко 1014.0 1013.1
06 18.07 СВ 2 н/о н/о +28.9 +4.4 21 +27 +27 жарко 1012.5 1011.6
07 18.07 С 3 н/о н/о +28.5 +4.7 22 +27 +27 жарко 1012.6 1011.7
09 18.07 СЗ 2 н/о н/о +24.5 +9.3 38 +25 +25 комфорт 1012.8 1011.9
10 18.07 штиль 0 н/о н/о +21.4 +9.9 48 +23 +23 комфорт 1013.2 1012.3
12 18.07 ЮЗ 2 н/о н/о +18.2 +9.3 56 +19 +19 1014.4 1013.5
13 18.07 ЮЗ 3 н/о н/о +16.6 +8.3 58 +17 +17 1014.9 1014.0 +30.6
15 18.07 Ю 3 н/о н/о +15.3 +7.6 60 +15 +15 1014.8 1013.9
16 18.07 Ю 2 н/о н/о +15.6 +6.9 56 +16 +16 1014.7 1013.8
18 18.07 ЮВ 2 н/о н/о +12.6 +6.6 67 +12 +12 1014.1 1013.2
19 18.07 ЮЗ 1 н/о н/о +11.2 +7.1 76 +12 +12 1014.1 1013.2
21 18.07 Ю 2 н/о н/о +10.3 +5.5 72 +9 +9 1014.3 1013.4
22 18.07 В 2 н/о н/о +9.3 +6.2 81 +8 +8 1014.8 1013.9
00 19.07 ЮВ 3 н/о н/о +18.5 +4.3 39 +19 +19 1015.9 1015.0
01 19.07 В 3 н/о н/о +23.4 +4.9 30 +23 +23 комфорт 1016.2 1015.3 +9.3
03 19.07 В 5 н/о н/о +29.5 +3.5 19 +27 +27 жарко 1015.3 1014.4
04 19.07 В 4 н/о н/о +31.5 +2.7 16 +29 +29 жарко 1014.6 1013.7
06 19.07 СВ 4 н/о н/о +32.3 +3.3 16 +30 +30 жарко 1013.1 1012.2
07 19.07 В 3 н/о н/о +32.6 +3.5 16 +30 +30 жарко 1012.8 1011.9
09 19.07 СЗ 3 н/о н/о +27.3 +7.2 28 +27 +27 жарко 1013.5 1012.6
10 19.07 З 2 н/о н/о +22.6 +10.1 45 +24 +24 комфорт 1013.9 1013.0
12 19.07 З 3 н/о н/о +18.1 +12.3 69 +19 +19 1014.8 1013.9
13 19.07 Ю 4 н/о н/о +18.6 +10.7 60 +19 +19 1015.1 1014.2 +33.6
15 19.07 Ю 3 н/о н/о +19.3 +5.7 41 +20 +20 1015.2 1014.3
16 19.07 ЮВ 3 н/о н/о +19.1 +4.5 38 +20 +20 1015.3 1014.4
18 19.07 ЮВ 3 н/о н/о +16.0 +3.8 44 +16 +16 1014.8 1013.9
19 19.07 ЮВ 3 н/о н/о +14.8 +4.2 49 +14 +14 1014.5 1013.6
21 19.07 ЮВ 3 н/о н/о +14.4 +3.5 48 +14 +14 1014.8 1013.9
22 19.07 ЮВ 3 н/о н/о +14.5 +3.0 46 +14 +14 1015.2 1014.3

 

Местоположение метеостанции Mandora (Западная Австралия, Австралия): широта -19.73 долгота 120.85 высота над уровнем моря 8 м.

В архиве по умолчанию представлена погода в Mandora за последнюю неделю. Архивные данные за месяц целиком и за предыдущие месяцы, начиная с января 2011 года, Вы можете получить, выбрав интересующий диапазон дат из раскрывающегося списка и нажав кнопку "Ввод!".


*Определитесь, кто Вы:
робот инопланетянин человек

Внимание! Время в таблицах - всемирное. Для получения местного времени необходимо прибавить поправку, которая в Mandora равна 8 ч.

Смотрите также архив погоды в соседних городах и на ближайших метеорологических станциях:

Погода в Marble Bar (Западная Австралия, Австралия) (198 км)
Погода в Port Hedland Apardoo (Западная Австралия, Австралия) (242 км)
Погода в Broome Airport (Западная Австралия, Австралия) (246 км)
Погода в West Roebuck (Западная Австралия, Австралия) (256 км)
Погода в Telfer Aero (Западная Австралия, Австралия) (262 км)
Погода в Rowley Shoals (Западная Австралия, Австралия) (316 км)
Погода в Curtin Aero (Западная Австралия, Австралия) (394 км)
Погода в Derby Aero (Северная территория, Австралия) (397 км)
Погода в Roebourne Aero (Западная Австралия, Австралия) (402 км)
Погода в Newman Aero (Западная Австралия, Австралия) (423 км)

Пояснения к столбцам:

Ветер - указаны скорость ветра в м/с - средняя за 10 мин, порывы в срок и между сроками (в фигурных скобках) и направление, откуда дует ветер: С - северный, СВ - северо-восточный, В - восточный, ЮВ - юго-восточный, Ю - южный, ЮЗ - юго-западный, З - западный, СЗ - северо-западный.
Видимость - горизонтальная дальность видимости в метрах или километрах. При видимости от 1 до 10 км при отсутствии осадков обычно наблюдается дымка, при ухудшении видимости до 1 км и менее - туман. В сухую погоду видимость может ухудшаться дымом, пылью или мглою.
Явления - указаны атмосферные явления, наблюдавшиеся в срок или в последний час перед сроком; фигурными скобками обозначены явления, наблюдавшиеся между сроками (за 1-3 часа до срока); квадратными скобками обозначены град или гололедные отложения с указанием их диаметра в мм.
Облачность - указаны через наклонную черту общая и нижняя облачность в баллах и высота нижней границы облаков в метрах; квадратными скобками обозначены формы облаков: Ci - перистые, Cs - перисто-слоистые, Cc - перисто-кучевые, Ac - высококучевые, As - высокослоистые, Sc - слоисто-кучевые, Ns - слоисто-дождевые, Cu - кучевые, Cb - кучево-дождевые. Подробнее классификацию облаков см. в Атласе облаков (PDF).
T - Температура воздуха - температура, измеренная на высоте 2 м над землей.
Td - Температура точки росы - температура, при понижении до которой содержащийся в воздухе водяной пар достигнет насыщения.
f - Относительная влажность воздуха - влажноcть воздуха, измеренная на высоте 2 м над землей.
Te - Эффективная температура - температура, которую ощущает одетый по сезону человек в тени. Характеристика душности погоды. При расчете учитывается влияние влажности воздуха и скорости ветра на теплоощущения человека.
Tes - Эффективная температура на солнце - температура, которую ощущает человек, с поправкой на солнечный нагрев. Характеристика знойности погоды. Зависит от высоты солнца над горизонтом, облачности и скорости ветра. Ночью, в пасмурную погоду, а также при ветре 12 м/с и более поправка равна нулю.
P - Атмосферное давление - приведенное к уровню моря атмосферное давление.
Po - Атмосферное давление - измеренное на уровне метеостанции атмосферное давление.
Tmin - Минимальная температура - минимум температуры воздуха на высоте 2 м над землей.
Tmax - Максимальная температура - максимум температуры воздуха на высоте 2 м над землей.
R - Количество осадков - Количество выпавших осадков за период времени, мм. При наведении курсора мыши на число - период времени, за который выпало указанное количество осадков.
R24 - Количество осадков - Количество выпавших осадков за 24 часа, мм.
S - Снежный покров - Высота снежного покрова, см. При наведении курсора мыши на число - состояние снежного покрова и степень покрытия местности в баллах.